Home   Weather   Weißenfels   Past weeks

Flag for Germany Past Weather in Weißenfels, Saxony-Anhalt, Germany — Yesterday and Last 2 Weeks

Now
79 °F

Sunny.


Feels Like: 78 °F
Forecast: 55 / 78 °F
Wind: 5 mph from North

Location: Leipzig-Schkeuditz

Current Time: Aug 31, 2016 at 6:21:41 PM

Latest Report: Aug 31, 2016 at 5:50 PM


Visibility: 10 mi

Pressure: 30.12 "Hg

Humidity: 23%

Dew Point: 37 °F

Location of WeißenfelsLocation

Past Weather in Weißenfels — Graph

°F

Weißenfels Temperature Yesterday

Maximum temperature yesterday: 72 °F (at 2:20 PM)
Minimum temperature yesterday: 54 °F (at 4:20 AM)
Average temperature yesterday: 63 °F

High & Low Weather Summary for the Past Weeks

 TemperatureHumidityPressure
High95 °F (Aug 28, 3:50 PM)100% (Aug 17, 4:20 AM)30.33 "Hg (Aug 17, 4:20 AM)
Low48 °F (Aug 18, 4:20 AM)19% (Aug 26, 4:50 PM)29.80 "Hg (Aug 18, 3:50 PM)
Average69 °F63%30.08 "Hg
* Reported Aug 16 5:20 PM — Aug 31 5:20 PM, Weißenfels, Weather by CustomWeather, © 2016

Note: Actual official high and low records may vary slightly from our data, if they occured in-between our weather recording intervals... More about our weather records

Advertising

Weißenfels Weather History for the Previous 24 Hours

Scroll right to see more
 ConditionsComfort  
Time TempWeatherWind HumidityBarometerVisibility
5:20 PM
Wed, Aug 31
81 °FPassing clouds.7 mph20%30.12 "HgN/A
4:50 PM79 °FPassing clouds.8 mph21%30.12 "HgN/A
4:20 PM79 °FPassing clouds.5 mph23%30.12 "HgN/A
3:50 PM79 °FPassing clouds.7 mph23%30.12 "HgN/A
3:20 PM79 °FPassing clouds.7 mph26%30.15 "HgN/A
2:50 PM79 °FPassing clouds.7 mph28%30.15 "HgN/A
2:20 PM77 °FPassing clouds.9 mph30%30.18 "HgN/A
1:50 PM75 °FPassing clouds.7 mph29%30.18 "HgN/A
1:20 PM75 °FPassing clouds.8 mph31%30.18 "HgN/A
12:50 PM73 °FPassing clouds.8 mph33%30.21 "HgN/A
12:20 PM73 °FPassing clouds.9 mph36%30.21 "HgN/A
11:50 AM72 °FPassing clouds.7 mph38%30.21 "HgN/A
11:20 AM72 °FPassing clouds.8 mph41%30.21 "HgN/A
10:50 AM70 °FPassing clouds.7 mph46%30.21 "HgN/A
10:20 AM68 °FPassing clouds.6 mph49%30.21 "HgN/A
9:50 AM66 °FPassing clouds.6 mph56%30.21 "HgN/A
9:20 AM66 °FSunny.1 mph56%30.24 "Hg10 mi
8:50 AM61 °FPassing clouds.3 mph68%30.24 "HgN/A
8:20 AM59 °FSunny.6 mph72%30.24 "Hg10 mi
7:50 AM57 °FPassing clouds.7 mph77%30.24 "HgN/A
7:20 AM55 °FClear.5 mph77%30.24 "Hg10 mi
6:50 AM52 °FClear.7 mph82%30.24 "Hg10 mi
6:20 AM52 °FClear.7 mph82%30.24 "Hg10 mi
5:50 AM52 °FClear.7 mph88%30.24 "Hg10 mi
5:20 AM52 °FClear.7 mph82%30.24 "Hg10 mi
4:50 AM52 °FClear.7 mph82%30.24 "Hg10 mi
4:20 AM52 °FClear.7 mph82%30.24 "Hg10 mi
3:50 AM54 °FClear.8 mph77%30.27 "Hg10 mi
3:20 AM54 °FClear.6 mph77%30.27 "Hg10 mi
2:50 AM54 °FClear.7 mph77%30.27 "Hg10 mi
2:20 AM55 °FClear.8 mph72%30.27 "Hg10 mi
1:50 AM55 °FClear.6 mph72%30.27 "Hg10 mi
1:20 AM55 °FClear.7 mph72%30.27 "Hg10 mi
12:50 AM55 °FClear.7 mph72%30.27 "Hg10 mi
12:20 AM55 °FClear.8 mph77%30.27 "Hg10 mi
11:50 PM
Tue, Aug 30
61 °FPassing clouds.7 mph63%30.27 "HgN/A
11:20 PM61 °FClear.5 mph59%30.27 "Hg10 mi
10:50 PM61 °FClear.6 mph59%30.27 "Hg10 mi
10:20 PM61 °FClear.5 mph59%30.27 "Hg10 mi
9:50 PM63 °FClear.3 mph56%30.27 "Hg10 mi
9:20 PM63 °FClear.3 mph56%30.27 "Hg10 mi
8:50 PM64 °FSunny.5 mph52%30.27 "Hg10 mi
8:20 PM64 °FSunny.3 mph52%30.27 "Hg10 mi
7:50 PM68 °FSunny.3 mph46%30.27 "Hg10 mi
7:20 PM68 °FSunny.5 mph46%30.27 "Hg10 mi
6:50 PM70 °FPassing clouds.3 mph43%30.27 "HgN/A
6:20 PM72 °FPassing clouds.6 mph38%30.27 "HgN/A
Weather by CustomWeather, © 2016

See weather overviewHow to use our weather pages